Location: Esp�s Alto
(42.4476°N, 0.5876°E)
Time: 14:44:37
(UTC+00:00)

Cosmos 2237 Rocket - Pass Details

Date: 22 October 2019
Orbit: 833 x 851 km, 71.0° (Epoch: 12 November)

Event Time Altitude Azimuth Distance (km) Brightness Sun altitude
Exits shadow 04:15:38 49° 296° (WNW) 1,080 2.4 -23.3°
Maximum altitude 04:15:44 50° 300° (WNW) 1,079 2.4 -23.3°
Drops below altitude 10° 04:21:16 10° 15° (NNE) 2,485 4.9 -22.3°
Sets 04:23:50 0° 21° (NNE) 3,426 5.7 -21.8°
